Regional Weather Roundup
Issued by NWS Upton, NY

Current Version | Previous Version | Graphics & Text | Print | Product List | Glossary Off
Versions: 1 2 3 4 5 6 7 8 9 10 11 12 13 14 15 16 17 18 19 20 21 22 23 24 25 26 27

000
ASUS41 KOKX 252106
RWROKX

Regional Weather Roundup
National Weather Service New York NY
500 PM EDT WED APR 25 2018

Note: "FAIR" indicates few or no clouds below 12,000 feet with no
significant weather and/or obstructions to visibility.

NYZ071-072-176-178-NJZ106-104-252200-
New York City Metro Area

CITY           SKY/WX    TMP DP  RH WIND       PRES   REMARKS
Central Park   LGT RAIN  58  57  97 NE6       29.71F FOG
Bronx Bot Gard   N/A     55  54  94 E8        29.71R
Bronx Lehman C   N/A     55  55 100 E8          N/A
LaGuardia Arpt FOG       54  52  93 NE10      29.69F VSB 1
Queens College   N/A     57  57 100 SE5         N/A
Kennedy Intl   FOG       54  54 100 E6        29.70F VSB 1/2
Breezy Point     N/A     50 N/A N/A E5          N/A
Brooklyn Coll    N/A     55  54  94 E5          N/A
Staten Island    N/A     55  54  94 E5          N/A
Newark/Liberty FOG       56  56 100 E6        29.68F VSB 3/4
Teterboro      LGT RAIN  58  57  97 E5        29.67F
$$

NYZ177-179-078>081-252200-
Long Island New York

CITY           SKY/WX    TMP DP  RH WIND       PRES   REMARKS
Jones Beach      N/A     50 N/A N/A SE3         N/A
Wantagh          N/A     54  52  94 E7          N/A
Hempstead        N/A     55  55 100 SE5       29.72F
Matinecock Pt    N/A     46 N/A N/A E13         N/A
Farmingdale    FOG       55  55 100 SE8       29.71S VSB 1/2
MacArthur/ISP  FOG       55  55 100 S10       29.71F VSB 1/8
Stony Brook      N/A     57  57 100 S7          N/A
Shirley        CLOUDY    56  56 100 S13       29.73F FOG
Mt Sinai Harb    N/A    N/A N/A N/A S9          N/A
Westhampton    CLOUDY    56  54  93 S8G18     29.74F FOG
East Hampton   FOG       52  52  99 SE8       29.74F VSB 1/4
Southold         N/A     57  55  94 S7          N/A
Montauk          N/A     53  53 100 SE8       29.76F
$$

NYZ052-065-067-252200-
Hudson Valley

CITY           SKY/WX    TMP DP  RH WIND       PRES   REMARKS
White Plains   FOG       56  56 100 E8        29.69F VSB 3/4
Larchmont Harb   N/A     48 N/A N/A NE15        N/A
Croton On Huds   N/A     57 N/A N/A NE1         N/A
Somers           N/A     57  55  94 E7          N/A
Brewster         N/A     57  55  94 SE6         N/A
Newburgh       LGT RAIN  59  59 100 E7        29.71F FOG
Montgomery     LGT RAIN  58  56  93 N9        29.69F FOG
Otisville        N/A     55  55 100 NE2         N/A
Warwick          N/A     61  59  94 SE5         N/A
Suffern          N/A     59  59 100 E3          N/A
Poughkeepsie   CLOUDY    59  57  93 VRB5      29.69F FOG
Albany         CLOUDY    57  54  89 N5        29.73F
$$

NJZ001-105-106-008-010-013-015-019>022-104-252200-
New Jersey

CITY           SKY/WX    TMP DP  RH WIND       PRES   REMARKS
Newark/Liberty FOG       56  56 100 E6        29.68F VSB 3/4
Teterboro      LGT RAIN  58  57  97 E5        29.67F
Caldwell       CLOUDY    58  58 100 CALM      29.69S FOG
Somerville     CLOUDY    60  59  96 NE3       29.66F FOG
Linden         CLOUDY    57  56  95 CALM      29.68F
Perth Amboy      N/A     55 N/A N/A NE2         N/A
Sussex         CLOUDY    59  57  93 N8        29.69F
Andover          N/A     60  58  92 CALM      29.68F
Trenton        CLOUDY    63  60  90 N8        29.66F
Millville      FAIR      70  59  68 S7        29.63F
Atlantic City  FAIR      67  60  78 S9        29.65F
Wrightstown    PTSUNNY   67  61  80 E5        29.63
Toms River     FAIR      69  61  75 SE5       29.66F
Belmar         CLOUDY    62  59  90 VRB5      29.68F
$$

PAZ047>061-062-071-252200-
Eastern Pennsylvania

CITY           SKY/WX    TMP DP  RH WIND       PRES   REMARKS
Philadelphia   CLOUDY    67  58  72 E3        29.66S
Allentown      CLOUDY    61  57  87 NE5       29.68F
Scranton       CLOUDY    60  57  89 N6        29.69F
$$

CTZ002-004>006-009-010-012-RIZ004-006-007-MAZ004-011-015-252200-
Southern New England

 In CT

CITY           SKY/WX    TMP DP  RH WIND       PRES   REMARKS
Bradley Intl   LGT RAIN  58  57  97 E5        29.75F FOG
Hartford       CLOUDY    59  57  93 SE5       29.74F FOG
Danbury        CLOUDY    56  56 100 E5        29.72F FOG
Wtrbury/Oxford LGT RAIN  56  55  97 SE6       29.73F VSB 1
Norwalk Harbor   N/A     50 N/A N/A NE16        N/A
Bridgeport     LGT RAIN  52  51  97 NE13      29.72F VSB 1/2
Meriden        CLOUDY    56  55  97 SE7       29.74F
New Haven      LGT RAIN  55  53  93 E8        29.72F VSB 3/4
Chester        FOG       54  54 100 E6        29.74F VSB<1/4
Groton         LGT RAIN  50  50 100 E10       29.75F FOG
Willimantic    LGT RAIN  57  55  93 VRB6      29.76F FOG

 In RI

CITY           SKY/WX    TMP DP  RH WIND       PRES   REMARKS
Providence     LGT RAIN  54  54 100 S17       29.80F FOG
Block Island   LGT RAIN  50  50 100 SE14      29.77F VSB 1/4
Westerly       FOG       52  52 100 SE10      29.77F VSB 3/4

In MA

CITY           SKY/WX    TMP DP  RH WIND       PRES   REMARKS
Boston         HVY RAIN  50  50 100 E16       29.82  VSB 1
Worcester      LGT RAIN  54  54 100 E7        29.79F VSB 1/2
Westfield      LGT RAIN  58  58 100 VRB3      29.76F VSB 1
Provincetown   LGT RAIN  54  53  97 SE16G24   29.86F FOG
Nantucket      CLOUDY    50  50 100 SE29G37   29.83F FOG
$$

ANZ330-335-338-340-345-350-353-355-252200-
Coastal Marine Observations


STATION/POSITION TIME  SKY/WX   TEMP    WIND        PRES    VSBY  WAVE
                                AIR SEA DIR/SP/G                  HT/PER
                 (UTC)          (F)     (DEG/KT/KT) (MB)    (MI)  (FT/S)
NY Harb Entrance 2050            49 45  150/  8/ 12 1005.2          8/10
20 S Fire Island 2050            49 44  150/  6/  8 1005.8         11/11
23 SSW Montauk P 2050            49 44  160/ 12/ 14 1007.0         10/10
15 E Barnegat Li 2030               46                N/A           9/11
Hudson Canyon    2050            51 45  140/ 12/ 14 1005.5         15/11
Kings Point      2036            55 47   60/  2/  2 1006.6
Execution Rocks  NOT AVBL
Western LI Sound NOT AVBL
Central LI Sound 2015            50     130/  8/ 10   N/A           2
Robbins Reef     2036            55     100/  6/  6 1005.8
$$


>>>>>>>>>>>>>>>>>>>>>>>>>>>> KEY <<<<<<<<<<<<<<<<<<<<<<<<<<<
>                                                          <
>     SKY/WX - Sky Condition/Present Weather               <
>     TMP    - Temperature in Fahrenheit                   <
>     DP     - Dew Point in Fahrenheit                     <
>     RH     - Relative Humidity in Percent                <
>     WIND   - Direction (from) and Speed in MPH           <
>     PRES   - Mean Sea Level Pressure (inches of Hg)      <
>     WCI    - Wind Chill Index                            <
>     VSB    - Visibility in Miles                         <
>     HX     - Heat Index                                  <
>     TC     - Temperature in Celsius                      <
>     VRB    - Varibale Wind Direction                     <
>                                                          <
>>>>>>>>>>>>>>>>>>>>>>>>>>>> KEY <<<<<<<<<<<<<<<<<<<<<<<<<<<




USA.gov is the U.S. government's official web portal to all federal, state and local government web resources and services.